Simultaneous Nadir Overpasses (SNOs) Predictions

Prediction of SNOs between NOAA-19 and TERRA Satellite Orbit:

Table of predicted SNOs for the next 14.0 days since TLE Epoch: 4/3/2021
Index Date (NOAA-19) Time (NOAA-19) Lat,Lon (NOAA-19) SZA (NOAA-19 ) Date (TERRA) Time (TERRA) Lat,Lon (TERRA) SZA (TERRA ) Distance(km) Time Diff (sec)
1 04/04/2021 19:49:54 80.20, -85.79 75.57 04/04/2021 19:51:07 80.11, -85.47 75.55 11.64 73
2 04/04/2021 20:40:56 -80.13, 82.44 104.41 04/04/2021 20:40:33 -80.14, 82.45 104.41 1.16 23
3 04/07/2021 02:14:03 80.13, 179.19 74.78 04/07/2021 02:14:15 80.16, 179.17 74.80 2.69 12
4 04/09/2021 07:47:20 -80.15, -84.30 106.05 04/09/2021 07:47:59 -80.14, -84.43 106.06 2.83 39
5 04/09/2021 08:38:15 80.14, 83.19 73.95 04/09/2021 08:37:25 80.14, 83.21 73.94 0.49 50
6 04/11/2021 13:20:28 80.17, 12.23 73.15 04/11/2021 13:21:41 80.15, 12.24 73.16 2.17 73
7 04/11/2021 14:11:31 -80.14, 179.92 106.85 04/11/2021 14:11:08 -80.15, 179.90 106.85 1.70 23
8 04/13/2021 19:44:39 80.15, -83.46 72.36 04/13/2021 19:44:50 80.16, -83.46 72.38 1.13 11
9 04/16/2021 01:17:54 -80.17, 13.03 108.42 04/16/2021 01:18:33 -80.14, 12.94 108.44 3.52 39



Historial Predications of SNOs between NOAA-19 and TERRA
